FW4338 Weather Reports


Display with metric or nautical units.
time (UTC)temp
F
wind
direction
speed
MPH
gust
MPH
rain 1hr
in
rain 24hr
in
rain mn
in
humidity
%
barometer
mb
20260504033329 59 202 1.0 3.0 0.00 0.00 0.00 59 1068.2
20260504032413 59 202 2.0 3.0 0.00 0.00 0.00 60 1068.4
20260504031429 59 202 1.0 2.0 0.00 0.00 0.00 59 1068.3
20260504030431 59 202 1.0 2.0 0.00 0.00 0.00 59 1068.5
20260504024430 59 202 1.0 3.0 0.00 0.00 0.00 58 1068.5
20260504023429 59 202 0.0 0.0 0.00 0.00 0.00 58 1068.4
20260504022429 59 202 1.0 2.0 0.00 0.00 0.00 57 1068.5
20260504015431 60 247 0.0 1.0 0.00 0.00 0.00 55 1068.3
20260504014528 60 247 0.0 0.0 0.00 0.00 0.00 53 1068.2
20260504011613 63 247 0.0 0.0 0.00 0.00 0.00 48 1067.9
20260504004814 65 247 1.0 2.0 0.00 0.00 0.00 45 1067.7
20260504003830 65 247 2.0 2.0 0.00 0.00 0.00 44 1067.7
20260504002830 66 202 0.0 1.0 0.00 0.00 0.00 44 1067.7
20260504001828 66 247 2.0 3.0 0.00 0.00 0.00 42 1067.6
20260504000915 67 226 3.0 5.0 0.00 0.00 0.00 43 1067.7
20260504000012 67 242 2.0 4.0 0.00 0.00 0.00 43 1067.7
20260503235028 67 247 2.0 5.0 0.00 0.00 0.00 42 1067.8
20260503234030 67 275 4.0 6.0 0.00 0.00 0.00 42 1067.8
20260503232128 68 254 4.0 6.0 0.00 0.00 0.00 41 1067.7
20260503230128 67 227 5.0 6.0 0.00 0.00 0.00 43 1067.8
20260503225129 67 240 3.0 5.0 0.00 0.00 0.00 43 1067.9
20260503224128 67 207 3.0 5.0 0.00 0.00 0.00 41 1067.9
20260503223228 67 199 6.0 11.0 0.00 0.00 0.00 42 1068.1
20260503222312 66 237 4.0 10.0 0.00 0.00 0.00 42 1068.2
20260503221329 66 225 7.0 12.0 0.00 0.00 0.00 43 1068.2
20260503215329 66 211 11.0 17.0 0.00 0.00 0.00 43 1068.2
20260503214328 65 239 7.0 14.0 0.00 0.00 0.00 41 1068.4
20260503213414 65 216 7.0 11.0 0.00 0.00 0.00 41 1068.9
20260503212429 65 216 7.0 12.0 0.00 0.00 0.00 42 1068.7
20260503210530 64 245 7.0 10.0 0.00 0.00 0.00 42 1069.0
20260503205528 65 218 7.0 21.0 0.00 0.00 0.00 41 1069.3
20260503204528 64 243 9.0 16.0 0.00 0.00 0.00 43 1069.4
20260503201728 63 208 7.0 14.0 0.00 0.00 0.00 47 1070.2
20260503200815 63 243 5.0 7.0 0.00 0.00 0.00 48 1070.6
20260503195830 62 225 7.0 13.0 0.00 0.00 0.00 48 1071.0
20260503194928 62 221 6.0 11.0 0.00 0.00 0.00 47 1071.1
20260503193929 62 227 7.0 11.0 0.00 0.00 0.00 47 1071.3
20260503192930 61 202 2.0 4.0 0.00 0.00 0.00 48 1071.2
20260503191930 61 189 4.0 10.0 0.00 0.00 0.00 48 1071.2
20260503191029 60 210 4.0 12.0 0.00 0.00 0.00 47 1071.4
20260503190928 60 211 7.0 10.0 0.00 0.00 0.00 48 1071.3
20260503184930 59 190 5.0 8.0 0.00 0.00 0.00 50 1071.5
20260503183930 59 202 5.0 12.0 0.00 0.00 0.00 51 1071.7
20260503182931 58 197 4.0 5.0 0.00 0.00 0.00 53 1071.9
20260503180013 56 191 6.0 13.0 0.00 0.00 0.00 54 1072.7
20260503175030 57 218 6.0 12.0 0.00 0.00 0.00 55 1073.2
20260503174129 57 210 7.0 17.0 0.00 0.00 0.00 57 1073.1
20260503170328 52 207 6.0 11.0 0.00 0.00 0.00 66 1074.4
20260503130929 51 232 3.0 6.0 0.00 0.00 0.00 55 1076.7
20260503110127 48 194 2.0 7.0 0.00 0.00 0.00 55 1076.2
20260503081629 46 191 2.0 7.0 0.00 0.00 0.00 53 1077.2
20260503080630 46 202 2.0 5.0 0.00 0.00 0.00 53 1077.1
20260503072914 46 202 2.0 4.0 0.00 0.00 0.00 54 1077.2
20260503071928 45 202 1.0 3.0 0.00 0.00 0.00 55 1077.3
20260503070930 45 202 2.0 3.0 0.00 0.00 0.00 55 1077.4
20260503054028 45 202 1.0 1.0 0.00 0.00 0.00 58 1078.2
20260503053127 45 202 1.0 3.0 0.00 0.00 0.00 57 1078.3
20260503051230 45 202 1.0 3.0 0.00 0.00 0.00 58 1078.3
20260503050327 45 202 0.0 3.0 0.00 0.00 0.00 57 1078.3
20260503045334 45 202 0.0 3.0 0.00 0.00 0.00 56 1078.2
20260503044334 45 202 0.0 1.0 0.00 0.00 0.00 56 1078.4
20260503043332 45 202 1.0 2.0 0.00 0.00 0.00 56 1078.4
20260503042333 45 202 1.0 2.0 0.00 0.00 0.00 56 1078.4
20260503041432 45 202 1.0 2.0 0.00 0.00 0.00 56 1078.6
20260503040432 45 202 1.0 1.0 0.00 0.00 0.00 57 1078.5
20260503035532 46 202 0.0 1.0 0.00 0.00 0.00 55 1078.6
20260503034536 46 202 1.0 2.0 0.00 0.00 0.00 55 1078.7